Regional Weather Roundup
Issued by NWS State College, PA

Home | Current Version | Previous Version | Text Only | Print | Product List | Glossary Off
Versions: 1 2 3 4 5 6 7 8 9 10 11 12 13 14 15 16 17 18 19 20 21 22 23 24 25 26 27 28 29 30 31 32 33 34 35 36 37 38 39 40 41 42 43 44 45 46 47 48 49 50

000
ASUS41 KCTP 170503
RWRCTP

REGIONAL WEATHER ROUNDUP
NATIONAL WEATHER SERVICE STATE COLLEGE PA
100 AM EDT WED SEP 17 2014

Note: "fair" indicates few or no clouds below 12,000 feet with no
significant weather and/or obstructions to visibility.

* = STATION THAT DOES NOT REPORT PRECIPITATION /E.G. RAIN...SNOW...ETC/
    THUNDER OR FOG.

PAZ002>004-007>009-013>016-020>023-029>032-170600-
WESTERN PENNSYLVANIA

CITY           SKY/WX    TMP DP  RH WIND       PRES   REMARKS
ERIE           CLEAR     51  45  79 S6        30.07S
MEADVILLE      CLEAR     49  46  90 CALM      30.08F
FRANKLIN*      MOCLDY    46  43  87 CALM      30.10S
NEW CASTLE     MOCLDY    50  50 100 CALM      30.10S
BEAVER COUNTY  NOT AVBL
BUTLER*        CLOUDY    50  46  87 CALM      30.10F
PITTSBURGH INT PTCLDY    54  50  86 CALM      30.09S
PITTSBURGH     CLEAR     55  48  77 N3        30.08S
INDIANA*       CLOUDY    50  48  93 CALM      30.13S
LATROBE        CLEAR     48  48 100 CALM      30.09F
WASHINGTON CO* CLOUDY    46  45  93 CALM      30.09S VSB 1/4
$$

PAZ004>006-010>012-017>019-024>028-033>037-041-042-045-046-049>053-170600-
CENTRAL PENNSYLVANIA

CITY           SKY/WX    TMP DP  RH WIND       PRES   REMARKS
BRADFORD       CLEAR     38  36  92 CALM      30.08S
DUBOIS         MOCLDY    47  44  90 CALM      30.08S
CLEARFIELD     MOCLDY    47  45  93 CALM      30.10R
JOHNSTOWN      PTCLDY    50  45  83 CALM      30.09S
ALTOONA        CLEAR     45  44  97 SE3       30.09S
STATE COLLEGE  PTCLDY    51  47  89 CALM      30.08S
WILLIAMSPORT   CLEAR     51  47  86 NW3       30.06S
SELINSGROVE    MOCLDY    52  50  93 NW3       30.07S
FT INDIANTOWN  NOT AVBL
CAPITAL CITY   MOCLDY    53  50  89 W3        30.05S
HARRISBURG     PTCLDY    55  50  83 NE3       30.04S
YORK           PTCLDY    47  45  93 CALM      30.05S
$$

PAZ038>040-043-044-047-048-054-055-060>062-067>071-170600-
EASTERN PENNSYLVANIA

CITY           SKY/WX    TMP DP  RH WIND       PRES   REMARKS
SCRANTON       PTCLDY    48  45  89 E6        30.06S
MOUNT POCONO   CLEAR     40  38  93 NE3       30.07S
ALLENTOWN      CLOUDY    53  49  86 W3        30.05S
QUAKERTOWN*    PTCLDY    48  48 100 CALM      30.05F
READING        PTCLDY    53  49  86 N3        30.04S
LANCASTER      NOT AVBL
COATESVILLE    CLEAR     54  50  87 CALM      30.05F
POTTSTOWN      CLEAR     52  49  89 CALM      30.06S
BLUE BELL      CLEAR     50  50 100 CALM      30.04S
DOYLESTOWN     CLEAR     51  32  48 CALM      30.04S
WILLOW GROVE   NOT AVBL
NORTH PHILA    CLEAR     57  48  72 CALM      30.06S
PHILADELPHIA   PTCLDY    61  50  67 CALM      30.04S
$$


USA.gov is the U.S. government's official web portal to all federal, state and local government web resources and services.